STARLINK-11293 [DTC] (61249 NORAD) Tracking and Keplerian Element Data

This shows tracking and keplerian element data for the satellite.

Feedback or suggestion? Click here.




ElementValue
Catalog61249
NameSTARLINK-11293 [DTC]
Epoch Orbit403
Epoch Day286.91668981
Epoch Year2024
RAAN65.2532
Inclination53.1564
Eccentricity0.0001219
Argument of Perigee57.7616
Mean Anonmoly297.6431
Mean Motion15.76715578
Decay Rate8.26E-05
L11 61249U 24175G 24286.91668981 .00008260 00000+0 54444-4 0 9991
L22 61249 53.1564 65.2532 0001219 57.7616 297.6431 15.76715578 4037



Live tracking and technical data element details for STARLINK-11293 [DTC] (NORAD 61249). STARLINK-11293 [DTC] can be tracked NOW for your location showing map with azimuth and elevation plus other details from your city location.







IsCatalogInMostPopularTable: catalog: 61249, numindb: 24
Update: records affected: 1



GetName: 61249 STARLINK-11293 [DTC]

Hit Count: updated at: Wed, 04 Dec 2024 12:40:10 GMT